• In Deutschland
  • Länderverzeichnis
  • Für 7 Tage
  • Wassertemperatur
  • Satellitenkarten
  • Wetterkarte
  • Widgets
  • user-avatar
    Anmelden

    Stündliche Wetter Constantine

    Heute, 29 April, Samstag

    Zeit Temperatur Niederschläge Wind Luftdruck Luftfeuchtigkeit
    00:00 +11°C° 0 mm 1 m/S 708 mmHg 93%
    01:00 +10°C° 0 mm 1 m/S 707 mmHg 93%
    02:00 +10°C° 0 mm 1 m/S 707 mmHg 94%
    03:00 +9°C° 0 mm 1 m/S 707 mmHg 95%
    04:00 +10°C° 0 mm 1 m/S 707 mmHg 93%
    05:00 +10°C° 0 mm 1 m/S 707 mmHg 92%
    06:00 +10°C° 0 mm 0 m/S 707 mmHg 90%
    07:00 +11°C° 0 mm 0 m/S 707 mmHg 82%
    08:00 +13°C° 0 mm 0 m/S 708 mmHg 75%
    09:00 +16°C° 0 mm 1 m/S 708 mmHg 67%
    10:00 +19°C° 0 mm 1 m/S 708 mmHg 59%
    11:00 +21°C° 0 mm 1 m/S 708 mmHg 52%
    12:00 +23°C° 0 mm 1 m/S 709 mmHg 44%
    13:00 +23°C° 0 mm 2 m/S 708 mmHg 44%
    14:00 +23°C° 0 mm 2 m/S 708 mmHg 45%
    15:00 +22°C° 0 mm 3 m/S 708 mmHg 46%
    16:00 +20°C° 0 mm 3 m/S 707 mmHg 54%
    17:00 +18°C° 0 mm 2 m/S 707 mmHg 63%
    18:00 +16°C° 0 mm 2 m/S 707 mmHg 72%
    19:00 +15°C° 0,2 mm 2 m/S 707 mmHg 79%
    20:00 +13°C° 0,2 mm 1 m/S 707 mmHg 86%
    21:00 +12°C° 0,2 mm 1 m/S 707 mmHg 94%
    22:00 +11°C° 0,3 mm 1 m/S 707 mmHg 94%
    23:00 +11°C° 0,3 mm 1 m/S 707 mmHg 95%

    Morgen, 30 April, Sonntag

    Zeit Temperatur Niederschläge Wind Luftdruck Luftfeuchtigkeit
    00:00 +11°C° 0,3 mm 1 m/S 707 mmHg 95%
    01:00 +11°C° 0,1 mm 1 m/S 707 mmHg 95%
    02:00 +11°C° 0,1 mm 1 m/S 707 mmHg 95%
    03:00 +11°C° 0,1 mm 1 m/S 706 mmHg 95%
    04:00 +12°C° 0 mm 1 m/S 707 mmHg 91%
    05:00 +13°C° 0 mm 1 m/S 707 mmHg 87%
    06:00 +15°C° 0 mm 1 m/S 707 mmHg 83%
    07:00 +18°C° 0 mm 1 m/S 708 mmHg 74%
    08:00 +20°C° 0 mm 1 m/S 708 mmHg 66%
    09:00 +22°C° 0 mm 1 m/S 709 mmHg 58%
    10:00 +23°C° 0,2 mm 2 m/S 709 mmHg 55%
    11:00 +24°C° 0,2 mm 2 m/S 708 mmHg 52%
    12:00 +24°C° 0,2 mm 2 m/S 708 mmHg 48%
    13:00 +24°C° 0,8 mm 2 m/S 708 mmHg 52%
    14:00 +23°C° 0,8 mm 2 m/S 708 mmHg 55%
    15:00 +22°C° 0,8 mm 3 m/S 708 mmHg 58%
    16:00 +20°C° 0,5 mm 2 m/S 708 mmHg 65%
    17:00 +19°C° 0,5 mm 2 m/S 708 mmHg 72%
    18:00 +17°C° 0,5 mm 2 m/S 708 mmHg 78%
    19:00 +15°C° 0 mm 1 m/S 708 mmHg 83%
    20:00 +13°C° 0 mm 1 m/S 708 mmHg 88%
    21:00 +12°C° 0 mm 1 m/S 709 mmHg 93%
    22:00 +11°C° 0 mm 1 m/S 709 mmHg 93%
    23:00 +11°C° 0 mm 1 m/S 709 mmHg 93%

    übermorgen, 1 Mai, Montag

    Zeit Temperatur Niederschläge Wind Luftdruck Luftfeuchtigkeit
    00:00 +11°C° 0 mm 1 m/S 708 mmHg 94%
    01:00 +10°C° 0 mm 1 m/S 708 mmHg 94%
    02:00 +10°C° 0 mm 1 m/S 708 mmHg 94%
    03:00 +10°C° 0 mm 1 m/S 708 mmHg 94%
    04:00 +12°C° 0 mm 1 m/S 709 mmHg 89%
    05:00 +13°C° 0 mm 1 m/S 709 mmHg 85%
    06:00 +15°C° 0 mm 1 m/S 710 mmHg 80%
    07:00 +16°C° 0 mm 1 m/S 710 mmHg 74%
    08:00 +18°C° 0 mm 2 m/S 711 mmHg 67%
    09:00 +19°C° 0 mm 2 m/S 711 mmHg 60%
    10:00 +20°C° 0 mm 2 m/S 712 mmHg 55%
    11:00 +21°C° 0 mm 2 m/S 712 mmHg 50%
    12:00 +24°C° 0 mm 2 m/S 712 mmHg 45%
    13:00 +22°C° 0 mm 3 m/S 712 mmHg 46%
    14:00 +22°C° 0 mm 3 m/S 711 mmHg 46%
    15:00 +22°C° 0 mm 4 m/S 711 mmHg 47%
    16:00 +20°C° 0 mm 3 m/S 711 mmHg 56%
    17:00 +18°C° 0 mm 3 m/S 711 mmHg 65%
    18:00 +17°C° 0 mm 3 m/S 711 mmHg 74%
    19:00 +15°C° 0 mm 2 m/S 712 mmHg 81%
    20:00 +14°C° 0 mm 2 m/S 712 mmHg 87%
    21:00 +13°C° 0 mm 1 m/S 713 mmHg 94%
    22:00 +13°C° 0 mm 1 m/S 712 mmHg 95%
    23:00 +12°C° 0 mm 1 m/S 712 mmHg 95%

    2 Mai, Dienstag

    Zeit Temperatur Niederschläge Wind Luftdruck Luftfeuchtigkeit
    00:00 +12°C° 0 mm 1 m/S 712 mmHg 95%
    01:00 +12°C° 0 mm 1 m/S 712 mmHg 95%
    02:00 +12°C° 0 mm 1 m/S 712 mmHg 94%
    03:00 +12°C° 0 mm 1 m/S 712 mmHg 93%
    04:00 +12°C° 0 mm 1 m/S 712 mmHg 92%
    05:00 +13°C° 0 mm 1 m/S 712 mmHg 90%
    06:00 +13°C° 0 mm 1 m/S 712 mmHg 88%
    07:00 +14°C° 0 mm 1 m/S 713 mmHg 81%
    08:00 +15°C° 0 mm 1 m/S 713 mmHg 73%
    09:00 +18°C° 0 mm 1 m/S 713 mmHg 66%
    10:00 +19°C° 0 mm 1 m/S 713 mmHg 61%
    11:00 +21°C° 0 mm 1 m/S 713 mmHg 55%
    12:00 +23°C° 0 mm 1 m/S 713 mmHg 50%
    13:00 +21°C° 0,2 mm 2 m/S 713 mmHg 51%
    14:00 +21°C° 0,2 mm 2 m/S 712 mmHg 52%
    15:00 +21°C° 0,2 mm 2 m/S 712 mmHg 53%
    16:00 +20°C° 0,3 mm 2 m/S 712 mmHg 60%
    17:00 +18°C° 0,3 mm 2 m/S 711 mmHg 66%
    18:00 +16°C° 0,3 mm 2 m/S 711 mmHg 73%
    19:00 +15°C° 0,1 mm 1 m/S 711 mmHg 79%
    20:00 +13°C° 0,1 mm 1 m/S 711 mmHg 84%
    21:00 +12°C° 0,1 mm 1 m/S 711 mmHg 90%
    22:00 +12°C° 0 mm 1 m/S 711 mmHg 91%
    23:00 +12°C° 0 mm 1 m/S 710 mmHg 91%

    3 Mai, Mittwoch

    Zeit Temperatur Niederschläge Wind Luftdruck Luftfeuchtigkeit
    00:00 +12°C° 0 mm 1 m/S 710 mmHg 92%
    01:00 +11°C° 0,1 mm 1 m/S 710 mmHg 92%
    02:00 +11°C° 0,1 mm 1 m/S 710 mmHg 92%
    03:00 +11°C° 0,1 mm 1 m/S 709 mmHg 92%
    04:00 +13°C° 0 mm 1 m/S 710 mmHg 88%
    05:00 +14°C° 0 mm 1 m/S 710 mmHg 83%
    06:00 +16°C° 0 mm 1 m/S 710 mmHg 78%
    07:00 +18°C° 0 mm 2 m/S 711 mmHg 67%
    08:00 +21°C° 0 mm 2 m/S 711 mmHg 57%
    09:00 +24°C° 0 mm 3 m/S 711 mmHg 46%
    10:00 +25°C° 0,1 mm 3 m/S 711 mmHg 43%
    11:00 +26°C° 0,1 mm 3 m/S 711 mmHg 40%
    12:00 +27°C° 0,1 mm 3 m/S 711 mmHg 37%
    13:00 +27°C° 0,1 mm 3 m/S 710 mmHg 40%
    14:00 +26°C° 0,1 mm 3 m/S 710 mmHg 42%
    15:00 +26°C° 0,1 mm 3 m/S 710 mmHg 45%
    16:00 +24°C° 0,2 mm 2 m/S 710 mmHg 55%
    17:00 +21°C° 0,2 mm 2 m/S 709 mmHg 64%
    18:00 +20°C° 0,2 mm 1 m/S 709 mmHg 74%
    19:00 +18°C° 0,4 mm 1 m/S 709 mmHg 79%
    20:00 +15°C° 0,4 mm 1 m/S 709 mmHg 84%
    21:00 +14°C° 0,4 mm 1 m/S 709 mmHg 90%
    22:00 +14°C° 0,1 mm 1 m/S 709 mmHg 89%
    23:00 +14°C° 0,1 mm 1 m/S 709 mmHg 87%

    4 Mai, Donnerstag

    Zeit Temperatur Niederschläge Wind Luftdruck Luftfeuchtigkeit
    00:00 +14°C° 0,1 mm 1 m/S 708 mmHg 86%
    01:00 +13°C° 0,1 mm 1 m/S 708 mmHg 86%
    02:00 +13°C° 0,1 mm 1 m/S 708 mmHg 86%
    03:00 +13°C° 0,1 mm 1 m/S 707 mmHg 86%
    04:00 +14°C° 0 mm 1 m/S 708 mmHg 81%
    05:00 +16°C° 0 mm 1 m/S 708 mmHg 76%
    06:00 +18°C° 0 mm 1 m/S 708 mmHg 71%
    07:00 +21°C° 0 mm 1 m/S 709 mmHg 61%
    08:00 +24°C° 0 mm 1 m/S 709 mmHg 51%
    09:00 +26°C° 0 mm 2 m/S 710 mmHg 42%
    10:00 +27°C° 0 mm 2 m/S 709 mmHg 38%
    11:00 +28°C° 0 mm 2 m/S 709 mmHg 35%
    12:00 +29°C° 0 mm 3 m/S 709 mmHg 32%
    13:00 +28°C° 0 mm 3 m/S 709 mmHg 35%
    14:00 +28°C° 0 mm 3 m/S 709 mmHg 38%
    15:00 +27°C° 0 mm 3 m/S 708 mmHg 42%
    16:00 +25°C° 0 mm 3 m/S 708 mmHg 51%
    17:00 +23°C° 0 mm 2 m/S 708 mmHg 60%
    18:00 +20°C° 0 mm 2 m/S 708 mmHg 69%
    19:00 +18°C° 0 mm 2 m/S 708 mmHg 76%
    20:00 +18°C° 0 mm 1 m/S 708 mmHg 83%
    21:00 +15°C° 0 mm 1 m/S 708 mmHg 90%
    22:00 +15°C° 0 mm 1 m/S 708 mmHg 89%
    23:00 +15°C° 0 mm 1 m/S 708 mmHg 88%
    Mehr zeigen